Voltar ao catálogo

ARIANE 5 DEB

SYLDA

AtivoHEO
NORAD 38554·DEBRIS·🇫🇷 France

Lançado Jul 5, 2012 de Guiana Space Centre

Loading…

Próximas Passagens (próximas 24 horas)

TLE

AtualizadoSource: Space-Track

Época: Sep 14, 2026, 08:58 UTC

1 38554U 12035D   26257.37402860  .00002576  00000-0  11353-2 0  9993
2 38554   5.7081 208.3926 5830823 209.3178  99.0018  4.24642843159130

Acompanhe ARIANE 5 DEB em tempo real com AllMySat

Download on the App Store